Satellite: NOAA-12
Catalog number: 21263
Epoch time:      09064.65205737
Element set:      30
Inclination:      098.7742 deg
RA of node:       072.6585 deg
Eccentricity:    0.0013373
Arg of perigee:   085.7944 deg
Mean anomaly:     274.4762 deg
Mean motion:   14.25568606 rev/day
Decay rate:        7.0e-08 rev/day^2
Epoch rev:           92564
Checksum:              318

Satellite: MET-3/5
Catalog number: 21655
Epoch time:      09063.91963401
Element set:    0568
Inclination:      082.5525 deg
RA of node:       280.1689 deg
Eccentricity:    0.0014677
Arg of perigee:   081.1068 deg
Mean anomaly:     279.1715 deg
Mean motion:   13.17018967 rev/day
Decay rate:        5.1e-07 rev/day^2
Epoch rev:           84390
Checksum:              323

Satellite: MET-2/21
Catalog number: 22782
Epoch time:      09063.82991771
Element set:     395
Inclination:      082.5435 deg
RA of node:       264.7928 deg
Eccentricity:    0.0021062
Arg of perigee:   280.7113 deg
Mean anomaly:     079.1671 deg
Mean motion:   13.83633552 rev/day
Decay rate:       -4.0e-08 rev/day^2
Epoch rev:           78317
Checksum:              316

Satellite: OKEAN-4
Catalog number: 23317
Epoch time:      09064.77768281
Element set:     845
Inclination:      082.5355 deg
RA of node:       070.9874 deg
Eccentricity:    0.0022045
Arg of perigee:   350.1454 deg
Mean anomaly:     009.9349 deg
Mean motion:   14.82677565 rev/day
Decay rate:      .00000000 rev/day^2
Epoch rev:           77704
Checksum:              313

Satellite: NOAA-14
Catalog number: 23455
Epoch time:      09064.41793911
Element set:     535
Inclination:      098.9164 deg
RA of node:       142.4356 deg
Eccentricity:    0.0010277
Arg of perigee:   123.3551 deg
Mean anomaly:     236.8650 deg
Mean motion:   14.13758297 rev/day
Decay rate:        4.6e-07 rev/day^2
Epoch rev:           73126
Checksum:              307

Satellite: NOAA-15
Catalog number: 25338
Epoch time:      09064.53786095
Element set:     839
Inclination:      098.5798 deg
RA of node:       056.0522 deg
Eccentricity:    0.0010787
Arg of perigee:   005.7401 deg
Mean anomaly:     354.3898 deg
Mean motion:   14.24747458 rev/day
Decay rate:       -9.8e-07 rev/day^2
Epoch rev:           56201
Checksum:              344

Satellite: RESURS
Catalog number: 25394
Epoch time:      09064.67322178
Element set:     157
Inclination:      098.3532 deg
RA of node:       102.2299 deg
Eccentricity:    0.0001748
Arg of perigee:   122.1441 deg
Mean anomaly:     237.9907 deg
Mean motion:   14.24180333 rev/day
Decay rate:       -3.4e-07 rev/day^2
Epoch rev:           55366
Checksum:              290

Satellite: FENGYUN1
Catalog number: 25730
Epoch time:      09063.95917841
Element set:    0704
Inclination:      098.7480 deg
RA of node:       037.2741 deg
Eccentricity:    0.0022490
Arg of perigee:   150.7294 deg
Mean anomaly:     209.5140 deg
Mean motion:   14.07935240 rev/day
Decay rate:       4.50e-06 rev/day^2
Epoch rev:           50565
Checksum:              291

Satellite: OKEAN-0
Catalog number: 25860
Epoch time:      09063.53195899
Element set:     615
Inclination:      097.7773 deg
RA of node:       048.9259 deg
Eccentricity:    0.0001484
Arg of perigee:   105.4350 deg
Mean anomaly:     254.7018 deg
Mean motion:   14.73560623 rev/day
Decay rate:       -3.0e-08 rev/day^2
Epoch rev:           51773
Checksum:              315

Satellite: NOAA-16
Catalog number: 26536
Epoch time:      09064.51950407
Element set:     315
Inclination:      099.1775 deg
RA of node:       065.6841 deg
Eccentricity:    0.0010066
Arg of perigee:   208.5889 deg
Mean anomaly:     151.4728 deg
Mean motion:   14.12511110 rev/day
Decay rate:      -2.00e-06 rev/day^2
Epoch rev:           43566
Checksum:              291

Satellite: NOAA-17
Catalog number: 27453
Epoch time:      09064.36435471
Element set:     323
Inclination:      098.4974 deg
RA of node:       126.9542 deg
Eccentricity:    0.0012604
Arg of perigee:   069.6899 deg
Mean anomaly:     290.5663 deg
Mean motion:   14.24045233 rev/day
Decay rate:        5.7e-07 rev/day^2
Epoch rev:           34797
Checksum:              331

Satellite: NOAA-18
Catalog number: 28654
Epoch time:      09064.39352229
Element set:     810
Inclination:      098.8989 deg
RA of node:       008.4879 deg
Eccentricity:    0.0013595
Arg of perigee:   298.2675 deg
Mean anomaly:     061.7125 deg
Mean motion:   14.11239679 rev/day
Decay rate:       3.72e-06 rev/day^2
Epoch rev:           19531
Checksum:              352

Satellite: NOAA-19
Catalog number: 33591
Epoch time:      09064.70584417
Element set:      26
Inclination:      098.7362 deg
RA of node:       013.2144 deg
Eccentricity:    0.0014086
Arg of perigee:   173.2782 deg
Mean anomaly:     186.8577 deg
Mean motion:   14.10938290 rev/day
Decay rate:        8.8e-07 rev/day^2
Epoch rev:             384
Checksum:              314

/EX
SB KEPS @ AMSAT  $ORB09064.M
Orbital Elements  09064.MISC

HR AMSAT ORBITAL ELEMENTS FOR MANNED AND MISCELLANEOUS SATELLITES
FROM WA5QGD FORT WORTH,TX March 5, 2009
Send Subscribe/unsubscribe to KEPS at 
http://www.amsat.org/mailman/listinfo/keps
BID: ORB09064.M
TO ALL RADIO AMATEURS BT

